When you browse on this site, cookies collect data to enhance your experience and personalize the content and advertising you see.
Visit our Privacy Policy to learn more. By continuing to use the site, you agree to this use of cookies and data.
  • In Germany
  • List of Countries
  • For 7 days
  • Water Temperature
  • Satellite Maps
  • Weather Map
  • Weather Widgets
  • user-avatar
    Login

    Hourly Weather Podgornoe

    Today, 22 February, Friday

    Time Temperature Precipitation Wind Pressure Humidity
    00:00 -6°C° 0 mm 3 mps 698 mmHg 58%
    01:00 -6°C° 0 mm 3 mps 698 mmHg 57%
    02:00 -6°C° 0 mm 3 mps 698 mmHg 57%
    03:00 -6°C° 0 mm 3 mps 698 mmHg 57%
    04:00 -6°C° 0 mm 2 mps 699 mmHg 56%
    05:00 -6°C° 0 mm 2 mps 699 mmHg 56%
    06:00 -6°C° 0 mm 2 mps 699 mmHg 56%
    07:00 -6°C° 0 mm 2 mps 699 mmHg 56%
    08:00 -2°C° 0 mm 1 mps 700 mmHg 56%
    09:00 0°C° 0 mm 1 mps 700 mmHg 57%
    10:00 +2°C° 0 mm 1 mps 701 mmHg 58%
    11:00 +2°C° 0 mm 1 mps 700 mmHg 62%
    12:00 +1°C° 0 mm 2 mps 700 mmHg 65%
    13:00 +2°C° 0 mm 2 mps 700 mmHg 68%
    14:00 +1°C° 0.1 mm 2 mps 700 mmHg 73%
    15:00 +1°C° 0.1 mm 2 mps 700 mmHg 77%
    16:00 -1°C° 0.1 mm 2 mps 701 mmHg 81%
    17:00 -2°C° 0.3 mm 2 mps 701 mmHg 84%
    18:00 -3°C° 0.3 mm 2 mps 701 mmHg 87%
    19:00 -2°C° 0.3 mm 1 mps 702 mmHg 90%
    20:00 -3°C° 0.2 mm 1 mps 702 mmHg 90%
    21:00 -3°C° 0.2 mm 1 mps 703 mmHg 90%
    22:00 -4°C° 0.2 mm 1 mps 703 mmHg 90%
    23:00 -6°C° 0.1 mm 1 mps 704 mmHg 90%

    Tomorrow, 23 February, Saturday

    Time Temperature Precipitation Wind Pressure Humidity
    00:00 -6°C° 0.1 mm 1 mps 704 mmHg 90%
    01:00 -7°C° 0.1 mm 1 mps 704 mmHg 90%
    02:00 -8°C° 0 mm 1 mps 704 mmHg 89%
    03:00 -9°C° 0 mm 1 mps 704 mmHg 89%
    04:00 -9°C° 0 mm 1 mps 704 mmHg 88%
    05:00 -10°C° 0 mm 1 mps 704 mmHg 86%
    06:00 -10°C° 0 mm 1 mps 704 mmHg 83%
    07:00 -11°C° 0 mm 1 mps 704 mmHg 81%
    08:00 -9°C° 0 mm 1 mps 704 mmHg 75%
    09:00 -7°C° 0 mm 1 mps 704 mmHg 70%
    10:00 -5°C° 0 mm 0 mps 704 mmHg 64%
    11:00 -4°C° 0 mm 0 mps 703 mmHg 61%
    12:00 -2°C° 0 mm 1 mps 703 mmHg 58%
    13:00 -1°C° 0 mm 1 mps 702 mmHg 55%
    14:00 -1°C° 0 mm 1 mps 702 mmHg 58%
    15:00 -1°C° 0 mm 1 mps 702 mmHg 60%
    16:00 -2°C° 0 mm 0 mps 701 mmHg 62%
    17:00 -3°C° 0 mm 1 mps 702 mmHg 65%
    18:00 -6°C° 0 mm 1 mps 702 mmHg 69%
    19:00 -7°C° 0 mm 1 mps 702 mmHg 72%
    20:00 -8°C° 0 mm 1 mps 703 mmHg 71%
    21:00 -8°C° 0 mm 1 mps 703 mmHg 70%
    22:00 -9°C° 0 mm 2 mps 703 mmHg 70%
    23:00 -9°C° 0 mm 2 mps 703 mmHg 69%

    Day after tomorrow, 24 February, Sunday

    Time Temperature Precipitation Wind Pressure Humidity
    00:00 -10°C° 0 mm 2 mps 703 mmHg 69%
    01:00 -10°C° 0 mm 2 mps 703 mmHg 68%
    02:00 -10°C° 0 mm 2 mps 703 mmHg 67%
    03:00 -10°C° 0 mm 2 mps 703 mmHg 67%
    04:00 -10°C° 0 mm 2 mps 703 mmHg 66%
    05:00 -10°C° 0 mm 2 mps 703 mmHg 66%
    06:00 -10°C° 0 mm 2 mps 703 mmHg 65%
    07:00 -10°C° 0 mm 2 mps 703 mmHg 65%
    08:00 -8°C° 0 mm 2 mps 703 mmHg 63%
    09:00 -4°C° 0 mm 1 mps 703 mmHg 61%
    10:00 -2°C° 0 mm 1 mps 703 mmHg 58%
    11:00 -1°C° 0 mm 1 mps 702 mmHg 57%
    12:00 +1°C° 0 mm 1 mps 702 mmHg 55%
    13:00 +2°C° 0 mm 1 mps 701 mmHg 53%
    14:00 +2°C° 0 mm 1 mps 701 mmHg 55%
    15:00 +1°C° 0 mm 1 mps 700 mmHg 57%
    16:00 +1°C° 0 mm 1 mps 699 mmHg 59%
    17:00 -1°C° 0 mm 1 mps 699 mmHg 62%
    18:00 -4°C° 0 mm 2 mps 699 mmHg 65%
    19:00 -6°C° 0 mm 2 mps 699 mmHg 68%
    20:00 -7°C° 0 mm 2 mps 699 mmHg 68%
    21:00 -7°C° 0 mm 2 mps 699 mmHg 68%
    22:00 -7°C° 0 mm 2 mps 699 mmHg 68%
    23:00 -8°C° 0 mm 2 mps 698 mmHg 67%

    25 February, Monday

    Time Temperature Precipitation Wind Pressure Humidity
    00:00 -8°C° 0 mm 2 mps 698 mmHg 67%
    01:00 -8°C° 0 mm 2 mps 697 mmHg 67%
    02:00 -9°C° 0 mm 3 mps 697 mmHg 66%
    03:00 -9°C° 0 mm 3 mps 697 mmHg 66%
    04:00 -9°C° 0 mm 3 mps 696 mmHg 66%
    05:00 -9°C° 0 mm 3 mps 696 mmHg 65%
    06:00 -9°C° 0 mm 3 mps 696 mmHg 64%
    07:00 -9°C° 0 mm 3 mps 696 mmHg 64%
    08:00 -6°C° 0 mm 2 mps 696 mmHg 62%
    09:00 -4°C° 0 mm 2 mps 696 mmHg 60%
    10:00 -2°C° 0 mm 2 mps 696 mmHg 58%
    11:00 -1°C° 0 mm 2 mps 695 mmHg 56%
    12:00 +2°C° 0 mm 1 mps 695 mmHg 54%
    13:00 +4°C° 0 mm 1 mps 694 mmHg 52%
    14:00 +3°C° 0 mm 1 mps 694 mmHg 53%
    15:00 +2°C° 0 mm 0 mps 694 mmHg 54%
    16:00 +2°C° 0 mm 0 mps 694 mmHg 55%
    17:00 0°C° 0 mm 0 mps 694 mmHg 58%
    18:00 -1°C° 0 mm 1 mps 695 mmHg 62%
    19:00 -3°C° 0 mm 1 mps 695 mmHg 65%
    20:00 -4°C° 0 mm 1 mps 695 mmHg 66%
    21:00 -4°C° 0 mm 1 mps 696 mmHg 67%
    22:00 -6°C° 0 mm 1 mps 696 mmHg 68%
    23:00 -6°C° 0 mm 1 mps 696 mmHg 68%

    26 February, Tuesday

    Time Temperature Precipitation Wind Pressure Humidity
    00:00 -6°C° 0 mm 1 mps 696 mmHg 68%
    01:00 -6°C° 0 mm 1 mps 696 mmHg 69%
    02:00 -7°C° 0 mm 1 mps 696 mmHg 69%
    03:00 -7°C° 0 mm 1 mps 696 mmHg 69%
    04:00 -7°C° 0 mm 1 mps 696 mmHg 69%
    05:00 -7°C° 0 mm 1 mps 696 mmHg 68%
    06:00 -7°C° 0 mm 1 mps 696 mmHg 68%
    07:00 -7°C° 0 mm 1 mps 696 mmHg 67%
    08:00 -4°C° 0 mm 1 mps 697 mmHg 64%
    09:00 -3°C° 0 mm 1 mps 697 mmHg 61%
    10:00 -2°C° 0 mm 0 mps 697 mmHg 58%
    11:00 -1°C° 0 mm 0 mps 696 mmHg 56%
    12:00 0°C° 0 mm 0 mps 696 mmHg 54%
    13:00 +1°C° 0 mm 0 mps 696 mmHg 52%
    14:00 +1°C° 0 mm 0 mps 695 mmHg 53%
    15:00 +1°C° 0 mm 0 mps 695 mmHg 54%
    16:00 0°C° 0 mm 0 mps 695 mmHg 56%
    17:00 -1°C° 0 mm 0 mps 695 mmHg 59%
    18:00 -2°C° 0 mm 1 mps 695 mmHg 62%
    19:00 -4°C° 0 mm 1 mps 696 mmHg 65%
    20:00 -4°C° 0 mm 1 mps 696 mmHg 64%
    21:00 -6°C° 0 mm 1 mps 696 mmHg 64%
    22:00 -6°C° 0 mm 1 mps 697 mmHg 64%
    23:00 -6°C° 0 mm 1 mps 697 mmHg 63%

    27 February, Wednesday

    Time Temperature Precipitation Wind Pressure Humidity
    00:00 -8°C° 0 mm 2 mps 697 mmHg 63%
    01:00 -8°C° 0 mm 2 mps 697 mmHg 62%
    02:00 -7°C° 0 mm 1 mps 697 mmHg 62%
    03:00 -7°C° 0 mm 1 mps 697 mmHg 61%
    04:00 -7°C° 0 mm 1 mps 697 mmHg 61%
    05:00 -7°C° 0 mm 1 mps 697 mmHg 61%
    06:00 -7°C° 0 mm 1 mps 697 mmHg 60%
    07:00 -7°C° 0 mm 1 mps 697 mmHg 60%
    08:00 -4°C° 0 mm 1 mps 697 mmHg 57%
    09:00 -2°C° 0 mm 1 mps 697 mmHg 54%
    10:00 -1°C° 0 mm 1 mps 697 mmHg 51%
    11:00 0°C° 0 mm 1 mps 697 mmHg 49%
    12:00 +1°C° 0 mm 1 mps 697 mmHg 47%
    13:00 +2°C° 0 mm 1 mps 696 mmHg 46%
    14:00 +2°C° 0 mm 1 mps 696 mmHg 48%
    15:00 +1°C° 0 mm 1 mps 696 mmHg 50%
    16:00 +1°C° 0 mm 1 mps 695 mmHg 52%
    17:00 -1°C° 0 mm 1 mps 695 mmHg 54%
    18:00 -2°C° 0 mm 1 mps 696 mmHg 57%
    19:00 -4°C° 0 mm 1 mps 696 mmHg 60%
    20:00 -4°C° 0 mm 1 mps 696 mmHg 60%
    21:00 -7°C° 0 mm 2 mps 696 mmHg 60%
    22:00 -7°C° 0 mm 2 mps 696 mmHg 61%
    23:00 -7°C° 0 mm 2 mps 695 mmHg 61%
    Show more